EHI
0 0 0 0 0 0 0 0 0 0 0 0 0 0 0 0 0 0 0 0 0 0 0 0 0 0 0 0 0 0 0 0 0 0 0 0 0 0
0 0 0 0 0 0 0 0 0 0 0 0 0 0 0 0 0 0 0 0 0 0 0 0 0 0 0 0 0 0 0 0 0 0 0 0 0 0
0 0 0 0 0 0 0 0 0 0 0 0 0 0 0 0 0 0 0 0 0 0 0 0 0 0 0 0 0 0 0 0 0 0 0 0 0 0
0 0 0 0 0 0 0 0 0 0 0 0 0 0 0 0 0 0 0 0 0 0 0 0 0 0 0 0 0 0 0 0 0 0 0 0 0 0
0 0 0 0 0 0 0 0 0 0 0 0 0 0 0 0 0 0 0 0 0 0 0 0 0 0 0 0 0 0 0 0 0 0 0 0 0 0
0 0 0 0 0 0 0 0 0 0 0 0 0 0 0 0 0 0 0 0 0 0 0 0 0 0 0 0 0 0 0 0 0 0 0 0 0 0
0 0 0 0 0 0 0 0 0 0 0 0 0 0 0 0 0 0 0 0 0 0 0 0 0 0 0 0 0 0 0 0 0 0 0 0 0 0
0 0 0 0 0 0 0 0 0 0 0 0 0 0 0 0 0 0 0 0 0 0 0 0 0 0 0 0 0 0 0 0 0 0 0 0 0 0
0 0 0 0 0 0 0 0 0 0 0 0 0 0 0 0 0 0 0 0 0 0 0 0 0 0 0 0 0 0 0 0 0 0 0 0 0 0
0 0 0 0 0 0 0 0 0 0 0 0 0 0 0 0 0 0 0 0 0 0 0 0 0 0 0 0 0 0 0 0 0 0 0 0 0 0
0 0 0 0 0 0 0 0 0 0 0 0 0 0 0 0 0 0 0 0 0 0 0 0 0 0 0 0 0 0 0 0 0 0 0 0 0 0
0 0 0 0 0 0 0 0 0 0 0 0 0 0 0 0 0 0 0 0 0 0 0 0 0 0 0 0 0 0 0 0 0 0 0 0 0 0
0 0 0 0 0 0 0 0 0 0 0 0 0 0 0 0 0 0 0 0 0 0 0 0 0 0 0 0 0 0 0 0 0 0 0 0 0 0
0 0 0 0 0 0 0 0 0 0 0 0 0 0 0 0 0 0 0 0 0 0 0 0 0 0 0 0 0 0 0 0 0 0 0 0 0 0
0 0 0 0 0 0 0 0 0 0 0 0 0 0 0 0 0 0 0 0 0 0 0 0 0 0 0 0 0 0 0 0 0 0 0 0 0 0
0 0 0 0 0 0 0 0 0 0 0 0 0 0 0 0 0 0 0 0 0 0 0 0 0 0 0 0 0 0 0 0 0 0 0 0 0 0
0 0 0 0 0 0 0 0 0 0 0 0 0 0 0 0 0 0 0 0 0 0 0 0 0 0 0 0 0 0 0 0 0 0 0 0 0 0
0 0 0 0 0 0 0 0 0 0 0 0 0 0 0 0 0 0 0 0 0 0 0 0 0 0 0 0 0 0 0 0 0 0 0 0 0 0
0 0 0 0 0 0 0 0 0 0 0 0 0 0 0 0 0 0 0 0 0 0 0 0 0 0 0 0 0 0 0 0 0 0 0 0 0 0
0 0 0 0 0 0 0 0 0 0 0 0 0 0 0 0 0 0 0 0 0 0 0 0 0 0 0 0 0 0 0 0 0 0 0 0 0 0
0 0 0 0 0 0 0 0 0 0 0 0 0 0 0 0 0 0 0 0 0 0 0 0 0 0 0 0 0 0 0 0 0 0 0 0 0 0
0 0 0 0 0 0 0 0 0 0 0 0 0 0 0 0 0 0 0 0 0 0 0 0 0 0 0 0 0 0 0 0 0 0 0 0 0 0
0 0 0 0 0 0 0 0 0 0 0 0 0 0 0 0 0 0 0 0 0 0 0 0 0 0 0 0 0 0 0 0 0 0 0 0 0 0
Wind_Speed
3 3 3 2 2 2 2 3 3 3 3 2 2 2 3 3 3 4 5 5 7 8 8 8 9 9 9 10 11 11 12 12 12 12 13 14 15 16
2 3 2 2 2 2 2 2 3 3 3 1 2 2 3 3 4 4 4 6 6 7 7 8 9 9 9 10 10 11 11 12 12 12 13 14 15 15
2 3 2 2 2 1 1 1 1 2 3 2 2 2 4 4 4 4 4 4 3 5 7 8 9 9 9 10 10 11 12 13 12 12 13 14 14 15
2 2 2 1 1 1 1 1 1 1 2 2 2 2 4 4 5 5 4 4 4 4 7 8 9 9 9 10 10 11 11 12 12 12 13 13 14 14
2 2 2 2 1 0 0 0 0 0 1 1 2 2 3 3 4 4 4 4 4 4 6 7 7 8 9 10 10 10 11 12 12 12 12 13 13 14
1 2 2 2 2 1 0 1 1 0 1 1 1 2 2 3 3 3 3 3 4 3 4 5 6 7 7 8 9 10 11 12 12 12 12 12 12 13
1 1 1 1 1 1 1 1 0 0 1 1 1 2 2 2 3 3 4 4 4 3 4 4 4 4 5 6 7 10 11 11 11 12 12 12 12 12
2 2 2 2 3 3 2 2 1 0 1 1 2 2 2 3 3 3 4 4 4 3 5 5 4 4 4 4 8 11 11 11 11 12 12 12 12 12
2 2 1 2 2 2 3 3 2 2 1 1 2 2 3 3 4 4 4 4 4 4 5 5 4 5 4 5 8 10 11 11 11 12 12 13 12 12
2 2 2 2 2 2 2 2 2 2 2 1 1 2 3 3 4 4 4 4 4 3 3 4 5 5 6 5 6 9 10 11 11 12 12 13 13 12
2 2 2 2 2 2 2 1 1 2 3 3 3 3 4 4 4 3 3 3 3 3 3 3 4 6 5 4 5 8 9 10 11 12 12 13 13 12
2 2 2 2 2 1 1 1 1 1 1 2 2 3 3 3 5 4 3 3 3 3 3 4 4 5 5 4 5 6 6 8 10 11 11 12 12 7
1 1 1 2 2 1 1 1 1 1 1 1 2 2 2 3 3 4 3 2 3 3 3 4 4 4 4 5 6 6 6 6 6 7 8 10 11 9
1 1 1 2 2 2 1 2 2 1 1 1 1 2 2 3 3 3 3 3 3 4 4 4 3 4 5 5 5 6 6 6 6 6 5 8 9 10
1 2 2 2 2 2 3 2 1 1 1 1 1 2 2 3 3 3 3 3 3 3 3 4 3 4 4 5 5 6 7 7 6 6 6 6 6 6
1 2 2 2 2 2 2 2 1 1 1 1 1 2 2 2 2 2 3 3 3 3 4 5 4 4 4 5 5 6 6 6 6 7 6 6 6 5
1 1 1 1 1 1 1 1 1 1 1 1 1 1 2 2 2 2 2 3 3 4 4 4 4 3 4 4 4 5 5 5 6 7 6 6 6 6
1 1 1 1 1 1 1 1 1 1 1 1 1 2 2 2 2 2 2 3 3 3 4 5 5 4 3 2 2 5 5 6 6 6 5 5 6 6
1 1 0 0 0 0 0 0 1 1 1 1 1 2 2 2 2 2 2 2 3 3 4 4 4 4 4 5 4 3 5 6 6 5 5 5 5 6
0 1 0 0 0 0 0 0 0 1 1 1 1 2 2 2 2 2 2 3 3 3 4 4 4 4 4 4 4 5 6 5 5 5 6 5 5 6
0 0 0 0 0 0 0 0 0 1 1 1 1 2 2 2 2 2 2 3 3 3 4 4 4 6 4 3 3 4 5 5 5 5 5 5 5 5
0 0 0 0 0 0 0 0 0 0 1 1 1 1 2 2 2 3 2 2 3 3 4 4 4 4 3 2 3 5 6 6 5 5 4 3 3 3
1 0 0 0 0 0 0 1 1 1 1 1 1 1 1 2 2 2 2 2 2 3 3 3 3 3 3 3 3 4 5 6 5 5 4 5 5 5
Wind_Direction
213 213 220 223 234 252 240 235 233 242 249 258 269 285 307 306 320 305 303 316 315 318 318 323 324 321 318 317 318 318 315 312 308 307 306 305 306 307
204 209 214 223 227 235 221 247 251 247 258 276 288 299 306 304 313 305 306 313 309 319 320 328 326 322 323 323 324 322 320 317 310 307 306 306 307 309
200 200 202 216 227 239 223 233 246 240 246 282 299 303 311 312 313 312 308 302 310 323 324 324 325 324 325 323 323 324 325 320 314 310 308 308 310 312
202 190 189 199 226 242 229 221 236 260 250 268 296 312 311 312 311 308 304 302 305 323 324 320 323 326 328 326 324 327 327 324 321 318 313 313 314 314
208 190 194 186 181 211 282 234 211 312 278 266 296 312 308 314 313 307 306 308 313 320 319 317 320 326 328 330 329 331 332 328 324 322 318 318 318 317
206 191 196 188 175 179 171 124 101 128 242 260 290 317 314 319 311 310 312 322 321 325 323 322 324 325 328 332 333 334 333 330 327 325 323 322 321 319
170 154 152 138 128 140 153 152 168 206 259 272 285 299 315 329 318 318 312 318 326 338 330 326 325 323 324 327 331 337 335 332 330 329 328 325 324 322
143 120 115 114 102 96 90 78 58 218 263 290 286 288 303 314 314 310 312 318 319 343 326 313 317 315 321 325 335 333 333 332 334 335 333 329 327 325
129 117 108 99 89 93 88 75 59 40 358 296 290 306 310 314 311 308 311 311 305 324 316 303 316 312 318 322 329 330 331 333 336 337 337 334 333 332
110 116 120 112 93 91 87 66 43 27 11 345 325 326 326 324 310 302 307 307 303 320 320 299 312 311 314 312 326 331 330 332 334 337 338 337 335 331
101 106 118 112 112 106 96 89 54 30 33 35 22 3 347 336 322 312 313 313 314 325 336 308 313 317 311 308 324 328 326 329 332 337 340 340 339 333
102 113 114 118 120 105 110 122 86 28 20 26 23 17 4 5 352 336 319 313 317 319 346 327 319 331 318 316 326 328 324 327 330 334 340 344 346 340
121 116 108 111 89 65 42 56 84 23 31 21 8 3 2 4 0 351 340 316 310 305 325 328 318 324 309 308 317 326 329 331 329 332 337 346 350 349
125 123 108 95 65 41 43 83 79 57 59 26 1 356 355 355 350 343 340 331 315 301 307 311 301 307 307 306 308 320 328 331 332 334 338 342 346 347
93 108 100 79 58 61 77 73 63 70 64 19 351 346 344 337 331 332 337 336 327 318 314 314 307 303 300 299 303 315 321 327 335 338 340 343 346 346
100 110 99 76 64 78 79 61 47 48 36 4 342 342 339 334 333 337 337 333 329 332 337 337 329 318 309 307 308 315 322 322 330 336 338 341 345 346
90 85 77 79 82 71 60 49 40 38 30 5 348 348 341 338 340 342 338 333 328 328 333 337 332 321 318 315 312 318 322 325 328 334 337 339 344 347
117 132 130 112 92 79 62 38 27 14 5 353 344 343 337 338 339 342 338 334 332 329 328 331 329 325 321 338 327 315 323 327 330 334 337 335 336 343
133 140 158 176 106 76 59 14 3 357 348 344 344 342 335 335 336 337 337 339 338 333 330 331 335 336 338 339 339 338 324 324 326 331 337 336 329 332
211 181 194 239 41 31 354 349 352 346 342 346 347 341 336 334 332 329 330 336 333 331 332 335 342 340 331 322 316 321 329 320 322 325 328 329 326 321
288 253 216 234 192 275 324 322 315 320 335 341 342 339 336 332 330 327 328 331 326 328 330 332 329 320 304 297 305 321 339 347 331 317 321 324 330 340
280 259 259 228 224 220 241 256 263 297 322 329 335 335 332 326 323 325 326 325 326 328 325 324 325 326 331 329 325 327 332 339 344 337 331 327 324 335
290 279 265 229 228 221 219 225 235 255 292 314 320 320 319 320 321 321 321 319 322 326 328 330 334 340 341 335 334 337 340 343 346 354 3 2 346 314